Regional Weather Roundup
Issued by NWS Wakefield, VA

Home | Current Version | Previous Version | Text Only | Print | Product List | Glossary On
Versions: 1 2 3 4 5 6 7 8 9 10 11 12 13 14 15 16 17 18 19 20 21 22 23 24 25 26 27 28 29 30 31 32 33 34 35 36 37 38 39 40 41 42 43 44 45 46 47 48 49 50
000
ASUS41 KAKQ 061315
RWRAKQ

REGIONAL WEATHER ROUNDUP
NATIONAL WEATHER SERVICE WAKEFIELD VA
900 AM EDT WED MAY 06 2015

Note: "fair" indicates few or no clouds below 12,000 feet with no
significant weather and/or obstructions to visibility. * = Denotes
station may not report precipitation (e.g., rain,snow,etc.),
thunder or fog.

VAZ042-051-052>054-056-061400-
NORTHERN VIRGINIA

CITY           SKY/WX    TMP DP  RH WIND       PRES   REMARKS
WASH NATIONAL  MOSUNNY   70  63  78 CALM      30.23S
DULLES         MOSUNNY   68  62  81 CALM      30.23R
FORT BELVOIR   MOSUNNY   67  65  95 VRB1      30.22S
QUANTICO       PTSUNNY   65  61  87 S5        30.23S
FREDERICKSBRG* MOSUNNY   66  65  96 CALM      30.21F
STAFFORD*      MOSUNNY   64  32  30 CALM      30.26S
WARRENTON      MOSUNNY   66  66 100 CALM      30.22S
CULPEPER*      PTSUNNY   63  62  99 CALM      30.23R
MANASSAS*      SUNNY     66  64  94 CALM      30.23R
LEESBURG*      SUNNY     68  64  88 NE5       30.25R
WINCHESTER     SUNNY     70  57  64 N3        30.24S
FRONT ROYAL*   FAIR      66  61  82 CALM      30.23S
LURAY*         FAIR      63  63 100 CALM      30.24S
$$

VAZ048-049-060>072-079>083-061400-
CENTRAL AND SOUTH CENTRAL VIRGINIA

CITY           SKY/WX    TMP DP  RH WIND       PRES   REMARKS
RICHMOND       CLOUDY    67  55  65 S8        30.23S
CHESTERFIELD*  FAIR      70  48  46 S6        30.25S
PETERSBURG*    MOSUNNY   69  55  59 SW8       30.25S
HANOVER        CLOUDY    65  58  78 S5        30.24S
TAPPAHANNOCK*  CLOUDY    66  53  63 S3        30.24S
QUINTON*       FAIR      67  56  68 SW5       30.24R
CHARLOTTSVILLE CLOUDY    65  61  87 CALM      30.22S
GORDONSVILLE*  CLOUDY    64  61  91 CALM      30.21S
ORANGE*        PTSUNNY   66  63  88 CALM      30.23S
LOUISA*        MOSUNNY   66  61  82 W3        30.21S
BUMPASS*       FAIR      63  60  90 SW6       30.23R
FARMVILLE*     PTSUNNY   65  58  79 S5        30.22S
CREWE*         FAIR      67  54  63 CALM      30.23S
FORT PICKETT*  FAIR      68  56  65 SW9G17    30.24S
CHASE CITY*    FAIR      68  58  71 S3        30.25S
CLARKSVILLE*   FAIR      64  55  72 SW3       30.24S
SOUTH HILL*    SUNNY     65  56  73 CALM      30.30S
LAWRENCEVILLE* FAIR      63  56  79 CALM      30.25S
EMPORIA*       SUNNY     63  55  77 CALM      30.27S
$$

VAZ088>098-061400-
SOUTHEAST VIRGINIA

CITY           SKY/WX    TMP DP  RH WIND       PRES   REMARKS
NORFOLK        MOSUNNY   68  54  60 SW12      30.26R
VIRGINIA BEACH PTSUNNY   71  57  61 SW7       30.25F
NORFOLK NAVAL  PTSUNNY   71  56  58 SW8       30.27S
WEST POINT*    MOSUNNY   70  52  53 SW8       30.26S
SALUDA*        FAIR      66  56  69 W3        30.24S
NEWPORT NEWS   SUNNY     70  55  59 SW7       30.26R
LANGLEY AFB    SUNNY     67  55  64 SW8       30.24S
FORT EUSTIS    SUNNY     67  56  68 VRB5      30.23S
WILLIAMSBURG*  SUNNY     70  57  64 SW6       30.26S
HR EXEC AP*    FAIR      66  55  68 SW6       30.27S
FRANKLIN*      MOSUNNY   65  55  69 SW3       30.27S
WAKEFIELD      MOSUNNY   66  55  67 VRB3      30.25F
$$

VAZ020-022-025-037-045-061400-
WEST CENTRAL AND SOUTHWEST VIRGINIA

CITY           SKY/WX    TMP DP  RH WIND       PRES   REMARKS
STAUNTON*      CLOUDY    62  59  89 CALM      30.27S
WAYNESBORO*    CLOUDY    63  59  86 CALM      30.26S
HOT SPRINGS VA CLOUDY    65  50  58 N5        30.34R
LYNCHBURG      PTSUNNY   64  59  83 S5        30.25S
DANVILLE       SUNNY     65  56  72 SW5       30.25S
SOUTH BOSTON*  FAIR      66  56  70 MISG      30.24S
MARTINSVILLE   SUNNY     66  59  79 CALM      30.27S
ROANOKE        PTSUNNY   64  57  78 N5        30.27S
BLACKSBURG     CLOUDY    60  55  85 CALM      30.32S
DUBLIN*        CLOUDY    63  59  86 CALM      30.31S
MARION*        PTSUNNY   66  56  71 W6        30.33S
HILLSVILLE*    SUNNY     61  55  79 CALM      30.31S
RICHLANDS*     PTSUNNY   64  56  74 CALM      30.31S
WISE*          MOSUNNY   70  50  49 CALM      30.31S
ABINGDON*      MOSUNNY   63  57  80 CALM      30.30S
$$

MDZ021>025-VAZ099-100-061400-
SOUTHERN MARYLAND AND THE DELMARVA PENINSULA

CITY           SKY/WX    TMP DP  RH WIND       PRES   REMARKS
PATUXENT RIVER PTSUNNY   66  58  75 CALM      30.23R
BAY BRIDGE APT   N/A    N/A N/A N/A SE3       30.23S
LEONARDTOWN    PTSUNNY   64  55  72 SW5       30.24S
DOVER          NOT AVBL
GEORGETOWN     SUNNY     69  60  73 S10       30.24S
EASTON         PTSUNNY   70  70 100 CALM      30.26S
CAMBRIDGE      MOSUNNY   70  61  73 CALM      30.23R
SALISBURY      MOSUNNY   68  56  65 SW5       30.24R
OCEAN CITY     MOSUNNY   67  56  67 S3        30.25R
WALLOPS ISLAND PTSUNNY   66  56  70 S5        30.25R
ACCOMACK*      PTSUNNY   70  54  56 SW12      30.25S
$$

NCZ012>017-030>032-061400-
NORTH CENTRAL AND EASTERN NORTH CAROLINA

CITY           SKY/WX    TMP DP  RH WIND       PRES   REMARKS
ROANOKE RAPIDS FAIR      63  55  77 CALM      30.25F
RALEIGH        PTSUNNY   66  58  75 SW3       30.25F
ELIZABETH CITY SUNNY     69  59  70 CALM      30.27S
AHOSKIE*       SUNNY     65  56  74 CALM      30.26F
EDENTON*       SUNNY     67  59  73 CALM      30.27S
CURRITUCK*     SUNNY     69  55  60 SW3       30.27F
KILL DEVIL HLS SUNNY     69  61  77 CALM      30.26S
MANTEO         SUNNY     69  55  61 CALM      30.27S
CAPE HATTERAS  PTSUNNY   68  54  60 SE5       30.26R
TARBORO*       FAIR      64  57  77 CALM      30.27S
GOLDSBORO      MOSUNNY   65  58  79 CALM      30.23S
WASHINGTON       N/A     64  58  82 CALM      30.26F
GREENVILLE     MOSUNNY   66  59  77 CALM      30.26F
NEW BERN       PTSUNNY   66  58  75 E3        30.27R
WILMINGTON     CLOUDY    68  62  81 NE7       30.23S
$$

VAZ048-061400-
ELSEWHERE

CITY           SKY/WX    TMP DP  RH WIND       PRES   REMARKS
HARRISBURG PA  LGT RAIN  63  56  78 CALM      30.26R
BALTIMORE      MOSUNNY   69  61  75 CALM      30.22S
ANNAPOLIS      SUNNY     64  61  90 SE6       30.22S FOG
ANDREWS AFB    SUNNY     68  65  88 VRB1      30.22S
PHILADELPHIA   CLOUDY    71  44  37 NE13G20   30.26R
HENDERSON NC   CLOUDY    66  55  67 SW7       30.25S
GREENSBORO     MOSUNNY   67  54  63 W8        30.24S
ROCKY MOUNT    MOSUNNY   66  57  72 SE3       30.26S
$$

VAZ100-061400-
MARINE

STATION/POSITION TIME  TEMP    WIND        PRES    WAVE   SWELL
                       AIR SEA DIR/SP/G            HT/PER HT/PER
                 (UTC) (F)     (DEG/KT/KT) (MB)    (FT/S) (FT/S)
BRANDYWINE LGT   1212   65 57  230/ 11/ 12 1023.7R
CAPE MAY NJ      1200   64 61  210/  8/ 11 1023.3R
LEWES DE         1212   69 57  230/  2/  3 1023.7R
15NM E FENWICK I 1250   57 53              1023.7F   2/ 5
OCEAN-CITY-INLET 1212   59 56  180/  4/  6 1023.9R
WACHAPREAGUE VA  1200   67 67  240/  6/  8 1024.2R
THOMAS POINT MD  1300   63 61   CALM  /  1 1024.0F
GOOSES REEF MD   1300   63 62                N/A     1/ 2
COVE POINT MD    1200   62     190/  4/  4 1024.0R
SOLOMONS ISLAND  1200      61                N/A
BISHOPS HEAD MD  1200   67 66  190/  4/  4 1023.4R
PINEY POINT MD   1200          280/  4/  4   N/A
CAMBRIDGE MD     1200   66 65  210/  3/  4 1023.3R
LEWISETTA VA     1200   66 65              1023.3R
RAPPAHANNOCK LGT 1200          190/  9/ 10 1024.7R
YORK RVR RNG VA  1200   64     210/  7/  8 1023.6R
YORKTOWN VA      1200   65 63  220/  6/  8 1023.7S
JAMESTOWN VA     1300   66 66  250/  6/  8 1023.5S
DOMINION TERM VA 1200   62     200/  4/  5 1024.6R
KIPTOPEKE VA     1200      66  190/  4/  5   N/A
CHES BAY BRIDGE  1212   63 62  200/  6/  6 1024.2R
CAPE HENRY VA    1200   64     190/  4/  6 1023.4R
CHESAPEAKE LGHT  1200   62     210/  9/  9 1025.5R
WILLOUBY STN VA  1200   63     220/  8/  9 1025.1R
S CRANEY ISL VA  1200          190/  4/  6 1024.6R
CAPE HENRY BUOY  1228      60                N/A     2/11
1ST LANDING BUOY 1300      62                N/A     1/ 4
CAPE CHARLES BUO 1226      57                N/A     2/11   2/11
OFFSHORE WE BUOY 1211      59                N/A     2/11   2/11
64NM E OF VA BCH 1250   59 57  240/  2/  4 1024.7F   2/11   2/11
DUCK PIER NC     1200   60 51  140/  2/  3 1024.0R
44056 DUCK FRF   1211      55                N/A     2/11
OREGON INLET NC  1200   68 69   50/  2/  2 1024.8R
HATTERAS NC      1212   69 67   90/  2/  4 1023.9R
DIAMOND SHLS NC  1250   71 75  100/  8/ 10 1024.5R   3/10   3/10
CAPE LOOKOUT NC  1300   69      40/  7/  9 1023.9R
$$


USA.gov is the U.S. government's official web portal to all federal, state and local government web resources and services.